Theta_e
295 295 293 292 292 294 295 293 292 291 290 287 288 289 290 291 292 292 292 292 292 292 292 292 292 292 293 292 286 290 289 290 289 293 295 297 299 302 307 306 309 310 310 311 311 314 314 295 300 304 297 297 298 301
296 296 296 294 292 293 294 295 293 292 291 288 287 289 290 290 293 292 292 291 289 291 291 291 293 294 294 291 290 289 289 290 293 290 289 288 295 299 299 306 295 300 286 293 296 298 289 290 292 288 289 292 295 296
296 296 296 296 295 294 293 295 294 293 292 289 287 289 290 290 290 291 292 290 289 289 290 292 294 293 294 289 285 286 290 292 292 291 293 289 291 294 297 291 291 283 281 285 286 287 283 286 286 286 287 288 293 296
295 295 297 297 296 295 293 293 294 293 292 290 287 288 290 290 290 291 291 290 288 289 287 291 292 293 293 292 284 284 286 288 290 292 293 290 291 290 289 284 281 278 279 279 283 282 281 289 284 284 286 289 292 294
293 294 295 296 297 296 295 294 294 294 293 291 288 288 289 289 289 291 292 291 287 289 286 290 291 293 292 286 285 292 292 291 291 292 293 291 288 287 283 280 277 277 277 278 278 278 279 280 282 285 285 288 291 293
292 292 293 294 296 297 297 295 294 294 293 292 289 288 289 289 289 289 290 289 286 289 289 282 290 287 285 284 286 288 290 292 292 292 290 287 284 285 283 280 277 276 276 275 276 276 277 281 283 286 286 289 290 291
292 292 292 292 294 295 297 296 295 295 294 293 289 288 289 287 288 288 288 286 287 288 286 282 280 282 283 282 282 286 289 291 291 290 288 283 280 280 274 274 276 275 275 275 277 276 277 281 280 284 286 287 289 290
292 292 292 292 292 293 294 297 296 295 294 293 289 288 288 286 286 287 287 286 285 286 283 271 276 280 280 280 280 283 286 289 289 288 285 281 278 278 274 276 275 275 274 275 275 277 278 280 281 283 285 286 287 288
292 293 292 292 292 291 293 294 296 295 295 293 289 287 286 285 284 285 286 285 284 284 281 278 275 276 279 279 278 281 283 282 288 285 282 280 277 276 276 275 274 274 273 273 274 276 278 279 279 281 283 284 285 285
292 292 292 292 291 291 291 292 296 295 294 293 288 286 285 284 284 284 283 283 283 282 281 280 279 275 278 277 278 279 281 281 284 286 281 276 277 276 275 274 274 274 274 274 273 274 275 276 278 279 280 282 283 283
292 292 292 292 291 291 291 291 294 295 294 292 291 285 284 284 284 283 282 280 279 278 280 279 278 275 277 275 276 279 277 280 281 283 279 277 277 275 275 275 275 275 274 274 274 274 275 276 277 278 279 279 280 281
292 292 292 292 292 291 291 291 292 294 292 291 288 285 284 284 283 279 270 277 277 279 279 279 278 276 276 277 279 279 279 279 281 278 272 276 270 275 274 275 275 275 275 275 274 274 275 276 276 277 277 278 279 279
292 292 292 293 293 293 292 290 292 294 292 290 284 283 283 282 281 281 279 276 276 279 279 278 276 276 276 277 277 276 275 278 279 272 274 271 275 274 274 274 275 275 275 275 276 275 275 276 276 277 277 277 278 279
293 293 295 298 298 296 293 292 292 293 292 286 284 281 281 280 279 280 280 279 280 280 279 277 276 275 275 273 274 275 275 274 269 269 273 267 274 274 274 274 274 274 275 275 275 276 276 276 277 277 277 278 278 279
296 298 300 300 301 299 294 293 292 293 292 287 283 283 277 282 281 281 281 281 280 279 278 276 274 274 271 269 269 271 272 271 270 273 271 274 274 273 274 274 274 274 274 275 275 275 276 276 277 277 277 278 278 278
300 301 300 301 301 298 294 293 292 292 291 286 284 280 280 280 279 280 280 280 279 279 277 276 268 267 270 268 272 271 268 272 273 270 275 274 274 273 274 274 274 274 274 274 274 275 275 275 276 276 277 277 277 277
301 300 301 301 300 296 295 293 292 291 287 283 282 281 283 282 284 283 281 280 279 278 272 272 271 273 268 267 269 270 271 272 276 276 275 274 273 273 274 274 274 274 274 274 274 274 274 275 275 276 276 276 276 276
300 300 301 300 300 297 294 292 291 290 283 282 281 282 280 281 281 284 281 280 279 278 277 272 274 269 271 271 273 273 276 276 276 275 274 273 273 273 273 273 273 273 274 273 274 274 274 274 275 275 275 275 275 275
300 299 298 298 298 294 292 290 290 285 284 281 280 280 280 280 280 282 281 279 278 278 278 275 266 270 273 273 275 277 277 277 276 274 273 273 273 273 273 273 273 273 273 273 273 274 274 274 274 274 274 275 275 275
298 298 298 298 297 293 291 289 288 284 279 279 279 278 279 278 278 279 279 277 276 277 274 270 272 276 277 279 279 278 277 276 275 274 273 273 273 273 273 273 273 273 273 273 273 273 273 273 273 273 273 274 274 274
297 297 296 295 292 292 291 289 285 282 280 279 277 278 276 275 275 275 275 275 274 274 272 277 278 280 279 278 278 277 276 275 274 274 273 272 272 272 272 272 272 273 272 272 273 272 273 273 273 273 273 273 273 273
296 296 294 290 290 290 290 285 283 280 279 276 276 275 274 272 273 273 273 272 273 276 279 279 279 279 278 278 277 276 275 274 273 273 273 272 272 272 272 272 272 272 272 272 272 272 272 272 273 273 273 273 273 273
296 294 291 289 289 287 280 280 281 278 276 274 273 274 274 273 272 271 271 272 274 276 278 278 277 278 277 276 275 275 274 273 273 272 272 272 272 271 272 271 271 272 272 272 272 272 272 272 272 272 272 272 272 272
291 290 290 289 288 276 277 276 276 275 273 273 274 276 275 272 269 268 271 272 275 277 276 276 275 276 274 274 274 274 273 272 272 272 272 272 271 271 271 271 271 271 271 271 271 271 271 271 271 272 272 272 272 272
289 288 288 280 277 275 275 273 274 274 276 275 276 276 270 269 271 271 268 272 274 274 274 274 274 275 275 275 273 272 272 272 272 272 271 271 271 271 271 271 271 271 271 271 270 270 271 271 271 271 271 271 271 271
288 287 285 283 276 278 276 275 274 275 276 276 277 270 271 271 273 274 271 274 274 274 274 274 274 274 274 273 273 273 273 272 272 271 271 271 271 271 271 271 271 271 270 270 270 270 270 270 270 270 270 270 270 270
290 284 280 279 278 277 276 276 276 277 277 278 273 271 272 274 275 274 274 274 274 274 275 275 275 274 274 273 273 272 271 271 271 271 271 270 270 270 270 270 270 270 270 269 269 269 269 269 269 269 269 269 269 269
279 279 279 277 277 277 277 277 277 278 278 276 273 272 274 276 277 273 274 274 274 275 275 273 273 272 272 272 272 271 271 271 270 270 270 270 270 270 270 270 269 269 269 268 268 268 268 269 269 269 268 269 269 269
276 276 277 274 277 278 276 276 277 274 273 274 275 276 275 273 273 273 274 273 274 274 274 273 273 272 272 272 271 271 270 270 269 269 269 269 269 270 270 269 269 269 269 268 268 267 267 268 268 268 268 268 268 268
274 275 276 276 276 274 268 269 270 271 272 273 273 272 272 272 272 273 273 273 273 272 272 272 272 272 271 271 270 270 269 269 269 269 269 269 269 269 269 269 269 268 268 268 267 267 268 268 268 268 268 268 268 268
273 274 272 269 267 267 268 269 270 270 271 271 271 272 271 271 272 272 272 272 272 271 271 271 271 271 270 270 270 269 269 269 269 269 269 269 269 269 268 268 268 268 267 267 267 267 267 268 267 267 267 268 268 268
272 270 271 270 268 268 268 269 269 269 269 270 269 270 270 271 271 271 271 271 271 271 271 270 270 270 269 269 269 269 269 269 269 269 269 269 268 268 268 268 267 267 267 267 267 267 267 267 267 267 267 267 267 267
271 270 269 269 268 269 269 269 269 268 268 267 267 267 268 269 270 270 270 270 270 270 269 269 269 269 269 269 269 269 269 269 269 269 268 268 268 268 267 267 267 267 267 267 267 267 267 267 267 267 267 267 267 267
Wind_Speed
22 25 26 27 29 31 32 32 33 36 37 32 26 18 18 17 15 9 7 6 7 5 10 4 8 9 7 10 3 16 11 5 5 6 4 4 3 5 5 3 3 4 3 5 5 3 6 24 6 2 11 18 22 17
21 24 26 27 28 30 30 31 32 34 36 33 27 19 16 18 11 9 6 9 18 6 6 12 4 6 3 7 11 9 5 9 4 3 3 3 3 3 5 3 8 2 4 5 7 3 12 17 15 20 26 21 23 29
20 24 25 26 28 29 30 30 31 33 36 35 28 18 14 16 13 6 5 11 21 4 4 1 2 5 2 10 21 7 5 5 9 14 3 2 3 3 4 4 5 14 21 3 8 9 22 12 32 38 37 31 29 25
17 21 25 27 27 29 29 31 31 33 34 35 29 16 12 14 13 9 7 13 25 5 1 1 3 5 5 14 32 16 19 19 18 16 5 2 2 7 3 3 5 5 15 13 6 12 31 10 44 43 43 33 29 22
17 20 22 26 30 28 29 29 31 32 34 36 29 15 9 12 12 10 8 9 24 9 4 8 7 2 9 27 22 4 8 9 9 4 2 2 4 5 4 4 3 9 5 5 5 25 18 30 47 40 36 32 25 22
19 20 22 24 28 31 30 30 30 31 33 35 29 14 8 10 11 8 3 5 19 11 2 3 5 7 16 32 12 10 8 5 3 3 4 5 5 7 2 2 3 21 19 20 13 30 32 34 30 24 30 21 19 15
21 21 23 24 26 29 31 30 30 31 32 34 28 13 7 8 8 5 3 11 14 6 3 6 10 8 22 23 15 15 8 5 4 3 5 3 9 6 3 3 19 28 28 31 17 30 19 21 32 31 22 17 16 12
23 22 23 24 26 27 31 31 30 30 31 32 26 12 7 6 5 4 4 7 10 2 3 3 5 10 19 10 10 15 10 6 7 4 4 4 5 5 2 13 23 25 31 16 33 29 22 27 25 19 15 11 10 6
23 24 25 25 26 28 29 33 30 29 30 29 22 10 6 3 4 6 5 6 7 6 4 4 2 4 16 8 7 9 7 3 5 3 3 3 2 4 9 23 27 29 22 27 32 26 24 22 20 16 11 7 5 7
25 25 25 26 27 26 28 30 32 28 28 24 13 4 3 7 8 4 2 2 2 6 5 4 1 2 8 7 5 9 6 2 3 3 3 3 2 5 16 23 23 25 25 24 27 29 29 24 19 15 10 7 6 8
28 26 26 27 27 26 26 28 31 28 26 18 9 4 8 9 3 1 1 5 5 4 3 1 2 2 2 2 3 4 3 3 3 3 2 1 1 6 22 22 21 22 21 19 16 15 13 12 12 8 4 1 5 10
30 28 28 27 28 26 26 26 29 25 20 21 17 16 7 3 0 5 1 4 1 2 1 1 3 5 3 3 3 5 2 3 2 5 3 1 3 16 20 21 19 19 19 17 15 13 11 9 6 3 1 4 9 13
30 30 30 28 27 26 25 24 26 22 21 17 4 3 3 2 3 4 3 3 2 4 3 3 4 3 1 1 4 2 3 2 4 3 2 3 4 16 17 18 16 15 14 13 13 11 10 9 7 7 10 11 14 19
31 30 30 28 27 27 25 23 22 18 9 4 3 5 3 3 4 4 3 4 5 5 2 3 1 2 2 3 1 2 3 2 3 3 4 3 8 14 13 13 14 14 12 11 11 11 11 13 15 15 15 16 18 22
34 30 28 28 30 29 21 24 20 15 4 5 4 5 6 6 4 7 9 8 7 6 2 3 4 1 2 2 2 2 5 3 5 4 3 4 9 11 10 11 12 11 10 9 8 9 9 11 13 16 15 15 17 18
31 31 32 31 27 27 25 26 19 15 5 7 9 3 4 4 5 9 14 12 12 8 5 4 3 3 2 2 2 5 5 6 3 4 6 8 9 8 7 8 9 9 8 6 5 6 7 8 12 13 13 14 14 15
31 41 38 34 31 22 30 24 14 7 7 7 8 15 16 4 8 12 16 14 17 9 3 4 3 7 4 2 3 4 5 3 6 7 7 8 9 8 6 6 7 6 5 4 3 3 4 6 6 9 13 14 14 14
42 43 40 37 37 27 24 19 9 8 11 15 7 12 18 12 9 10 15 18 17 11 9 5 7 3 5 5 4 5 13 10 8 8 8 8 8 9 7 5 5 5 5 4 3 1 2 3 5 7 8 9 10 11
42 40 33 37 33 28 11 12 11 7 16 5 11 11 11 11 12 11 15 21 16 11 6 8 2 4 4 10 10 10 12 11 9 8 8 8 8 8 6 5 4 4 5 5 3 2 2 2 3 5 5 6 8 8
38 34 33 38 34 23 10 8 12 6 5 6 7 10 7 5 12 13 16 20 16 8 6 4 5 9 10 12 9 10 9 9 10 8 7 7 9 6 5 5 4 5 5 4 3 2 2 2 2 3 3 4 5 5
26 27 26 36 37 18 10 9 9 5 4 6 7 9 4 7 7 11 13 19 12 7 8 20 21 17 17 12 10 10 10 10 8 7 6 11 8 5 5 5 4 5 6 7 6 4 4 3 3 3 3 3 4 4
28 26 32 36 13 12 8 11 6 9 6 4 11 9 4 5 7 9 10 14 10 15 21 21 19 22 21 17 13 10 9 9 8 7 8 10 11 9 7 6 5 5 7 9 9 9 6 5 3 3 3 3 3 3
26 26 18 13 8 12 4 12 7 8 3 7 8 4 4 5 7 10 6 10 13 17 21 26 25 20 17 16 14 11 11 10 8 7 8 8 7 8 7 7 7 7 8 9 9 8 8 7 6 4 4 4 4 4
21 13 9 12 9 5 9 5 5 6 5 4 4 4 4 6 9 5 4 7 11 12 17 21 19 20 19 16 14 12 11 10 9 8 8 7 7 7 7 7 7 8 9 9 9 9 9 8 7 6 6 5 5 5
7 9 7 4 5 7 5 5 5 4 4 4 5 3 4 7 3 4 4 6 10 15 16 18 20 19 15 12 12 13 13 11 9 9 8 8 8 8 8 7 6 6 7 9 9 9 9 8 8 7 7 6 6 7
5 8 7 12 6 6 7 7 8 7 4 5 4 5 5 3 3 6 3 3 7 10 18 22 22 20 15 12 12 12 10 10 10 9 9 9 9 9 9 9 7 6 7 8 9 8 8 7 7 6 6 7 7 10
5 6 4 5 7 7 3 3 5 3 6 6 4 5 3 4 6 4 3 3 2 2 11 14 13 10 7 10 9 10 10 9 10 9 9 9 10 10 10 10 9 9 8 8 8 8 7 7 7 7 7 7 8 11
2 1 3 7 3 3 3 3 4 5 4 6 12 5 5 4 1 1 1 2 3 9 14 15 13 12 11 9 9 9 10 10 10 10 11 11 11 11 10 10 11 10 10 9 8 7 6 7 6 5 7 10 11 12
3 4 3 2 3 3 1 1 1 2 3 8 3 2 3 2 2 3 3 5 6 9 13 13 13 11 9 7 8 9 9 9 9 10 10 10 9 8 8 9 10 11 12 10 8 7 7 5 7 11 11 13 16 17
3 2 1 2 1 1 3 2 1 1 2 5 3 2 2 1 3 3 5 6 8 10 10 9 8 7 6 7 7 8 7 7 8 8 8 8 7 7 6 7 7 9 10 9 8 8 9 9 10 11 12 14 15 16
2 2 4 4 2 2 1 3 3 3 2 1 2 2 2 1 2 3 5 8 9 10 10 9 7 6 7 6 6 6 6 6 6 7 6 7 6 6 6 6 7 8 8 9 8 8 8 10 11 13 13 14 15 16
4 4 2 2 2 2 2 2 2 2 3 2 3 2 1 0 1 2 4 7 9 9 9 8 7 6 7 8 8 7 6 5 5 6 5 5 6 6 6 6 8 6 6 9 11 13 15 16 16 16 16 17 17 17
3 6 5 3 2 2 3 2 3 2 3 2 3 3 2 1 2 2 2 2 5 10 12 9 9 8 7 8 9 8 6 6 6 6 6 5 4 3 3 4 8 12 14 15 16 17 17 17 17 15 18 19 18 16
Wind_Direction
3 3 1 359 0 3 4 5 6 5 5 4 2 0 3 4 359 13 15 0 1 291 289 281 316 304 312 8 355 317 341 1 338 10 4 339 311 331 335 303 323 180 238 181 205 234 242 356 343 130 335 322 327 328
359 360 360 357 355 357 0 3 4 3 3 3 359 355 354 356 354 359 18 2 343 244 273 309 350 1 354 16 330 316 264 300 316 2 8 331 316 321 318 305 351 81 15 296 4 45 340 346 48 8 359 337 329 322
348 355 356 355 354 353 356 359 1 360 0 0 358 350 352 357 2 5 350 353 4 319 303 345 67 332 4 340 344 294 276 295 304 310 286 251 283 338 359 30 317 353 21 15 329 17 340 291 5 353 350 342 336 327
336 340 350 352 350 351 351 354 357 358 357 358 357 349 348 353 356 356 322 352 11 344 333 212 320 321 276 312 333 304 281 287 291 291 250 251 294 20 48 78 63 343 323 326 282 6 341 257 333 327 332 342 340 339
322 328 336 345 349 348 348 350 353 355 355 354 354 348 342 350 346 333 308 338 359 12 296 306 324 271 296 331 335 342 332 292 283 288 258 19 31 8 77 82 56 351 339 338 290 317 288 292 307 323 327 329 332 330
312 320 323 333 342 348 345 345 350 352 352 350 350 347 334 350 354 338 303 353 344 353 327 342 325 305 319 345 16 12 6 335 289 319 31 64 39 358 63 71 158 346 324 302 279 295 299 307 315 320 322 325 324 316
307 313 315 321 328 340 344 342 344 348 348 348 345 342 329 350 3 19 0 336 347 356 341 315 336 341 338 351 2 4 10 348 11 56 49 63 18 51 71 22 324 325 321 326 333 331 323 319 316 322 321 313 310 305
302 308 310 315 318 326 336 341 340 343 345 345 342 334 322 335 338 349 342 337 3 356 44 61 303 346 355 340 332 349 334 351 34 79 55 54 28 39 91 329 324 327 331 336 335 338 323 317 317 315 306 297 285 267
297 302 306 311 314 319 325 335 337 339 342 343 339 325 299 306 314 320 314 347 7 41 93 72 71 296 339 344 321 327 329 342 14 60 50 67 358 44 316 324 328 334 333 322 329 336 341 339 332 331 324 296 242 170
293 296 301 307 309 314 319 325 333 336 340 341 332 320 275 324 316 306 311 308 16 32 48 87 209 294 326 331 314 338 333 310 1 60 78 67 112 324 340 339 337 338 340 340 338 339 342 339 339 348 341 296 234 183
291 294 298 301 304 310 313 316 326 333 341 346 327 274 296 315 296 295 48 43 359 41 28 26 266 269 3 5 298 330 300 299 24 350 90 16 256 333 346 347 347 345 344 344 336 327 326 325 328 337 348 255 182 173
289 291 293 297 299 304 307 309 318 326 330 322 304 286 287 283 268 76 297 315 84 219 214 49 339 309 325 321 290 322 298 5 337 351 68 282 253 342 348 348 351 351 352 353 353 350 354 353 352 9 97 139 153 156
287 288 290 294 295 298 299 299 310 317 322 320 295 272 272 281 31 144 228 291 283 197 175 335 335 319 301 289 274 349 19 249 318 34 240 224 333 345 346 345 352 355 359 4 14 25 33 48 66 93 106 118 136 140
284 285 287 290 290 290 287 285 299 309 327 288 269 286 168 263 242 185 187 176 163 179 209 350 123 9 348 17 319 56 258 41 19 352 242 240 325 339 341 342 346 355 2 10 20 33 50 63 72 77 87 103 112 113
280 282 283 283 285 283 271 269 284 285 257 260 226 244 215 220 186 178 172 163 176 184 203 126 102 52 359 45 51 7 1 283 204 230 233 252 317 326 336 340 344 347 354 6 21 34 50 68 78 84 84 90 95 102
278 280 273 280 287 282 257 262 266 261 221 224 230 243 211 178 204 190 199 193 186 180 130 124 111 52 295 142 63 215 128 229 238 209 224 287 299 303 321 334 336 338 340 352 15 41 55 71 80 86 97 96 97 103
276 272 277 280 280 251 246 252 249 220 228 226 239 227 209 250 220 200 207 198 186 170 161 129 124 217 116 37 260 195 210 216 194 223 266 273 295 296 296 315 324 325 322 326 350 38 70 75 86 99 96 97 101 101
267 274 276 273 270 255 226 225 212 227 226 227 220 225 211 215 196 185 199 191 175 188 162 201 139 152 201 195 232 225 223 219 240 270 278 263 273 283 282 291 302 304 296 301 307 328 113 114 111 97 96 98 103 102
272 274 272 270 265 217 199 200 205 244 227 222 226 224 209 215 212 201 202 191 191 178 173 167 129 209 223 215 215 202 213 225 251 268 267 253 253 263 262 267 279 283 278 275 264 246 198 159 127 120 114 110 111 106
267 259 262 260 260 203 191 201 194 237 230 212 212 197 198 198 193 198 196 191 189 178 198 208 217 215 214 227 231 229 240 246 250 249 245 228 222 243 264 263 261 258 253 246 232 226 223 188 154 131 115 124 124 118
263 256 233 224 203 193 194 187 193 203 208 203 197 183 189 174 183 189 195 194 190 218 235 234 233 238 238 238 225 231 247 250 244 236 231 210 217 246 256 259 258 242 234 231 230 209 235 225 208 196 182 156 141 122
255 244 204 194 189 195 210 193 181 170 181 191 175 190 171 185 193 198 193 194 230 231 231 246 247 239 233 229 224 230 238 230 226 223 231 223 233 245 247 249 253 245 233 233 234 238 240 233 227 222 215 202 179 154
242 216 194 182 190 192 175 167 165 181 159 191 169 183 212 199 194 172 227 228 244 245 241 240 239 237 221 207 211 222 222 219 218 221 234 243 242 242 249 247 246 242 241 239 237 232 227 227 237 252 239 234 224 219
219 186 188 187 197 141 152 168 162 156 146 182 178 210 197 174 166 195 252 247 234 239 231 225 218 201 193 201 210 214 210 210 214 220 229 236 238 239 238 243 248 247 244 238 233 230 228 231 236 246 246 246 242 244
176 198 192 149 163 129 152 157 176 184 219 179 203 201 176 166 185 226 236 260 233 229 216 202 198 200 203 204 201 198 207 212 216 219 229 234 238 242 242 245 247 244 238 232 229 228 230 236 244 248 250 250 253 259
225 199 192 183 167 186 173 165 192 188 155 173 208 132 150 165 209 241 225 266 265 240 209 198 192 192 198 203 202 206 211 212 218 224 233 240 246 249 248 245 242 241 235 227 225 231 239 243 247 253 260 260 253 264
235 201 179 164 162 144 140 99 153 160 179 189 159 165 159 207 233 250 278 271 283 222 188 190 189 193 196 195 193 199 205 211 221 231 243 250 253 253 249 243 238 235 233 226 226 231 238 246 254 265 270 269 275 281
352 141 183 165 125 155 135 168 191 200 176 161 139 180 199 215 290 308 282 199 151 152 157 163 170 178 188 187 199 211 217 226 237 246 253 258 258 254 246 239 236 234 227 221 224 237 245 256 267 272 275 278 283 287
42 88 126 106 147 176 117 244 324 111 131 173 182 185 193 224 201 182 169 160 151 163 177 181 183 187 195 209 218 224 230 239 246 254 260 258 254 248 239 233 229 226 227 221 230 241 260 276 309 297 288 294 298 299
17 27 71 45 11 95 358 18 47 94 143 166 152 145 153 167 181 177 168 165 170 172 179 181 189 201 218 229 231 231 236 239 242 243 244 245 242 234 227 227 229 223 220 228 236 247 257 264 260 266 286 295 300 300
32 45 72 55 75 4 74 93 95 96 118 111 111 136 144 138 165 184 191 194 194 197 200 204 217 232 238 237 227 218 221 234 236 232 236 239 236 232 224 218 220 228 237 237 243 254 267 278 278 281 291 301 305 303
31 44 81 95 55 77 54 39 39 47 40 49 35 60 88 98 241 238 237 228 224 220 220 230 237 234 217 215 215 216 224 230 225 215 221 224 222 223 227 236 234 243 266 271 269 273 277 281 285 284 287 300 302 300
40 39 54 70 54 27 25 33 31 54 47 48 24 13 352 307 273 290 300 265 233 220 222 218 220 217 215 220 212 220 227 220 212 213 221 222 217 237 271 274 273 281 285 287 281 275 272 276 281 281 293 298 297 294